International Skating Union - Official Site

Essent ISU World Cup Heerenveen
March 8-10, 2013

Draw | Lap Times | Index | World Cup

Referee: Jan  AUGUSTINUS  (NED)
Starter: Jouko  VESTERLUND  (FIN)
StartTime: EndTime: Air Temp: Ice Temp: Humidity:
16:05 17:22
Result 5000m Men Division A
Rankings as of Mar 9 2013 5:36PM
Rank: No.: Name: Nation: Time: Behind: Points:
1 39 Sven  Kramer NED NED 6:10.78200m - 18.58 - (18.5)
600m - 47.49 - (28.9)
1000m - 1:16.76 - (29.2)
1400m - 1:46.73 - (29.9)
1800m - 2:16.09 - (29.3)
2200m - 2:45.71 - (29.6)
2600m - 3:15.10 - (29.3)
3000m - 3:44.92 - (29.8)
3400m - 4:14.44 - (29.5)
3800m - 4:43.86 - (29.4)
4200m - 5:13.11 - (29.2)
4600m - 5:42.19 - (29.0)
5000m - 6:10.78 - (28.5)
150
2 33 Jorrit  Bergsma NED NED 6:15.74200m - 19.51 - (19.5)
600m - 49.55 - (30.0)
1000m - 1:19.20 - (29.6)
1400m - 1:49.09 - (29.8)
1800m - 2:18.71 - (29.6)
2200m - 2:48.39 - (29.6)
2600m - 3:17.96 - (29.5)
3000m - 3:47.44 - (29.4)
3400m - 4:16.81 - (29.3)
3800m - 4:46.00 - (29.1)
4200m - 5:15.35 - (29.3)
4600m - 5:45.23 - (29.8)
5000m - 6:15.74 - (30.5)
4.96 120
3 38 Bob  de Jong NED NED 6:18.26200m - 19.76 - (19.7)
600m - 49.40 - (29.6)
1000m - 1:19.70 - (30.3)
1400m - 1:49.90 - (30.2)
1800m - 2:19.87 - (29.9)
2200m - 2:49.66 - (29.7)
2600m - 3:19.58 - (29.9)
3000m - 3:49.17 - (29.5)
3400m - 4:18.95 - (29.7)
3800m - 4:48.70 - (29.7)
4200m - 5:18.35 - (29.6)
4600m - 5:48.31 - (29.9)
5000m - 6:18.26 - (29.9)
7.48 105
4 30 Seung-Hoon  Lee KOR KOR 6:18.32200m - 18.41 - (18.4)
600m - 47.44 - (29.0)
1000m - 1:16.90 - (29.4)
1400m - 1:46.35 - (29.4)
1800m - 2:16.16 - (29.8)
2200m - 2:45.57 - (29.4)
2600m - 3:15.43 - (29.8)
3000m - 3:45.46 - (30.0)
3400m - 4:15.66 - (30.1)
3800m - 4:45.87 - (30.2)
4200m - 5:16.45 - (30.5)
4600m - 5:47.23 - (30.7)
5000m - 6:18.32 - (31.0)
7.54 90
5 35 Jan  Blokhuijsen NED NED 6:18.76200m - 18.31 - (18.3)
600m - 47.45 - (29.1)
1000m - 1:17.03 - (29.5)
1400m - 1:47.16 - (30.1)
1800m - 2:17.32 - (30.1)
2200m - 2:47.52 - (30.2)
2600m - 3:17.45 - (29.9)
3000m - 3:47.30 - (29.8)
3400m - 4:17.30 - (30.0)
3800m - 4:47.55 - (30.2)
4200m - 5:17.74 - (30.2)
4600m - 5:48.26 - (30.5)
5000m - 6:18.76 - (30.4)
7.98 75
6 56 Sverre  Lunde Pedersen NOR NOR 6:19.50200m - 18.61 - (18.6)
600m - 47.93 - (29.3)
1000m - 1:17.90 - (29.9)
1400m - 1:48.05 - (30.1)
1800m - 2:18.17 - (30.1)
2200m - 2:48.27 - (30.1)
2600m - 3:18.30 - (30.0)
3000m - 3:48.38 - (30.0)
3400m - 4:18.25 - (29.8)
3800m - 4:48.16 - (29.9)
4200m - 5:18.17 - (30.0)
4600m - 5:48.55 - (30.3)
5000m - 6:19.50 - (30.9)
8.72 45
7 51 Håvard  Bøkko NOR NOR 6:21.06200m - 18.64 - (18.6)
600m - 47.66 - (29.0)
1000m - 1:17.39 - (29.7)
1400m - 1:47.34 - (29.9)
1800m - 2:17.51 - (30.1)
2200m - 2:47.65 - (30.1)
2600m - 3:17.85 - (30.2)
3000m - 3:48.12 - (30.2)
3400m - 4:18.54 - (30.4)
3800m - 4:48.97 - (30.4)
4200m - 5:19.61 - (30.6)
4600m - 5:50.30 - (30.6)
5000m - 6:21.06 - (30.7)
10.28 40
8 3 Bart  Swings BEL BEL 6:21.88200m - 18.83 - (18.8)
600m - 48.15 - (29.3)
1000m - 1:17.69 - (29.5)
1400m - 1:47.54 - (29.8)
1800m - 2:17.59 - (30.0)
2200m - 2:47.66 - (30.0)
2600m - 3:17.95 - (30.2)
3000m - 3:48.20 - (30.2)
3400m - 4:18.33 - (30.1)
3800m - 4:48.80 - (30.4)
4200m - 5:19.54 - (30.7)
4600m - 5:50.59 - (31.0)
5000m - 6:21.88 - (31.2)
11.10 36
9 34 Ted-Jan  Bloemen NED NED 6:23.29200m - 19.23 - (19.2)
600m - 48.71 - (29.4)
1000m - 1:18.31 - (29.6)
1400m - 1:48.28 - (29.9)
1800m - 2:18.32 - (30.0)
2200m - 2:48.50 - (30.1)
2600m - 3:18.74 - (30.2)
3000m - 3:49.31 - (30.5)
3400m - 4:19.76 - (30.4)
3800m - 4:50.34 - (30.5)
4200m - 5:21.02 - (30.6)
4600m - 5:51.97 - (30.9)
5000m - 6:23.29 - (31.3)
12.51 32
10 75 Jonathan  Kuck USA USA 6:26.42200m - 19.62 - (19.6)
600m - 49.34 - (29.7)
1000m - 1:19.17 - (29.8)
1400m - 1:49.07 - (29.9)
1800m - 2:19.28 - (30.2)
2200m - 2:49.74 - (30.4)
2600m - 3:20.12 - (30.3)
3000m - 3:50.84 - (30.7)
3400m - 4:21.66 - (30.8)
3800m - 4:52.68 - (31.0)
4200m - 5:23.65 - (30.9)
4600m - 5:54.86 - (31.2)
5000m - 6:26.42 - (31.5)
15.64 28
11 14 Patrick  Beckert GER GER 6:28.12200m - 19.44 - (19.4)
600m - 48.46 - (29.0)
1000m - 1:18.45 - (29.9)
1400m - 1:48.56 - (30.1)
1800m - 2:18.96 - (30.4)
2200m - 2:49.99 - (31.0)
2600m - 3:21.31 - (31.3)
3000m - 3:52.64 - (31.3)
3400m - 4:23.71 - (31.0)
3800m - 4:55.08 - (31.3)
4200m - 5:26.22 - (31.1)
4600m - 5:57.12 - (30.9)
5000m - 6:28.12 - (31.0)
17.34 24
12 67 Aleksandr  Rumyantsev RUS RUS 6:28.38200m - 19.36 - (19.3)
600m - 49.44 - (30.0)
1000m - 1:19.48 - (30.0)
1400m - 1:49.78 - (30.3)
1800m - 2:20.07 - (30.2)
2200m - 2:50.42 - (30.3)
2600m - 3:20.75 - (30.3)
3000m - 3:51.17 - (30.4)
3400m - 4:21.66 - (30.4)
3800m - 4:52.59 - (30.9)
4200m - 5:24.10 - (31.5)
4600m - 5:56.16 - (32.0)
5000m - 6:28.38 - (32.2)
17.60 21
13 15 Moritz  Geisreiter GER GER 6:30.36200m - 19.32 - (19.3)
600m - 49.32 - (30.0)
1000m - 1:19.95 - (30.6)
1400m - 1:50.52 - (30.5)
1800m - 2:21.09 - (30.5)
2200m - 2:51.84 - (30.7)
2600m - 3:22.83 - (30.9)
3000m - 3:53.89 - (31.0)
3400m - 4:25.24 - (31.3)
3800m - 4:56.58 - (31.3)
4200m - 5:28.64 - (32.0)
4600m - 6:00.19 - (31.5)
5000m - 6:30.36 - (30.1)
19.58 18
14 18 Marco  Weber GER GER 6:30.42200m - 19.64 - (19.6)
600m - 50.05 - (30.4)
1000m - 1:21.16 - (31.1)
1400m - 1:51.89 - (30.7)
1800m - 2:22.71 - (30.8)
2200m - 2:53.39 - (30.6)
2600m - 3:24.34 - (30.9)
3000m - 3:55.34 - (31.0)
3400m - 4:26.45 - (31.1)
3800m - 4:57.62 - (31.1)
4200m - 5:29.15 - (31.5)
4600m - 6:00.17 - (31.0)
5000m - 6:30.42 - (30.2)
19.64 16
15 4 Jordan  Belchos CAN CAN 6:32.27200m - 19.62 - (19.6)
600m - 49.50 - (29.8)
1000m - 1:19.64 - (30.1)
1400m - 1:50.00 - (30.3)
1800m - 2:20.61 - (30.6)
2200m - 2:51.33 - (30.7)
2600m - 3:22.27 - (30.9)
3000m - 3:53.52 - (31.2)
3400m - 4:24.98 - (31.4)
3800m - 4:56.85 - (31.8)
4200m - 5:28.94 - (32.0)
4600m - 6:00.53 - (31.5)
5000m - 6:32.27 - (31.7)
21.49 14
16 13 Alexej  Baumgärtner GER GER 6:35.69200m - 19.66 - (19.6)
600m - 49.30 - (29.6)
1000m - 1:19.30 - (30.0)
1400m - 1:49.29 - (29.9)
1800m - 2:19.69 - (30.4)
2200m - 2:50.44 - (30.7)
2600m - 3:21.77 - (31.3)
3000m - 3:53.29 - (31.5)
3400m - 4:25.19 - (31.9)
3800m - 4:57.41 - (32.2)
4200m - 5:29.92 - (32.5)
4600m - 6:02.68 - (32.7)
5000m - 6:35.69 - (33.0)
24.91 12